Date String (YYYY-MM-DD hh:mm:ss) UTC,Instrument flags,absolute air pressure of the measurement (hPa),sample flow rate (lpm),inlet stack bypass flow (lpm),air temperature of the measurement (°C),ambient temperature measured by the external sensor (°C),aerosol sample conditioner tube jacket temperature (°C),OPC LED temperature (°C),internal box temperature (°C),relative humidity of the measurement (%),span deviation,mass concentration of particles derived from Lorenz-Mie calculation of OPC scattering (μg/m³),mass concentration of particles derived from Lorenz-Mie calculation of OPC scattering (μg/m³),mass concentration of particles derived from Lorenz-Mie calculation of OPC scattering (μg/m³)
DateTimeUTC,F1_M11,P_M11,Q1_M11,Q2_M11,T1_M11,T2_M11,T3_M11,T4_M11,T5_M11,U1_M11,ZSPAN_M11,X2_M11,X0_M11,X1_M11
2023-07-16 16:00:00,SystemResetWarning,0836.1,4.99,000.00,028.9,026.1,000.0,037.3,030.3,30.3,0000.9,0013.13,0020.37,0012.18
2023-07-16 16:01:00,SystemResetWarning,0836.1,5.00,000.00,028.9,026.5,000.0,037.3,030.4,29.8,0000.9,0013.26,0020.35,0012.31
2023-07-16 16:02:00,SystemResetWarning,0836.1,5.00,000.00,028.9,026.8,000.0,037.3,030.4,30.2,0000.7,0013.33,0020.42,0012.39
2023-07-16 16:03:00,SystemResetWarning,0836.2,5.01,000.00,028.9,027.1,000.0,037.4,030.5,30.1,0000.7,0013.41,0019.89,0012.47
2023-07-16 16:04:00,SystemResetWarning,0836.2,4.99,000.00,028.9,027.4,000.0,037.4,030.6,31.2,0000.7,0013.45,0020.00,0012.53
2023-07-16 16:05:00,SystemResetWarning,0836.2,4.99,000.00,029.0,027.6,000.0,037.4,030.7,30.4,0000.7,0013.47,0020.73,0012.58
2023-07-16 16:06:00,SystemResetWarning,0836.2,5.01,000.00,029.0,027.8,000.0,037.4,030.7,30.7,0000.9,0013.53,0021.29,0012.64
2023-07-16 16:07:00,SystemResetWarning,0836.2,5.01,000.00,029.1,027.5,000.0,037.4,030.7,30.6,0000.9,0013.52,0021.83,0012.68
2023-07-16 16:08:00,SystemResetWarning,0836.1,4.98,000.00,029.0,025.9,000.0,037.3,030.5,30.7,0000.9,0013.52,0021.70,0012.70
2023-07-16 16:09:00,SystemResetWarning,0836.1,5.01,000.00,029.0,025.0,000.0,037.2,030.3,31.2,0000.9,0013.54,0022.02,0012.73
2023-07-16 16:10:00,SystemResetWarning,0836.1,5.02,000.00,028.9,025.2,000.0,037.1,030.2,31.3,0000.9,0013.55,0021.95,0012.76
2023-07-16 16:11:00,SystemResetWarning,0836.1,4.99,000.00,028.8,025.5,000.0,037.2,030.2,30.8,0000.7,0013.55,0021.59,0012.79
2023-07-16 16:12:00,SystemResetWarning,0836.1,4.99,000.00,028.8,026.0,000.0,037.2,030.3,30.5,0000.5,0013.59,0021.94,0012.85
2023-07-16 16:13:00,SystemResetWarning,0836.1,5.01,000.00,028.8,026.4,000.0,037.3,030.3,31.1,0000.7,0013.68,0022.15,0012.96
2023-07-16 16:14:00,SystemResetWarning,0836.1,5.01,000.00,028.9,026.7,000.0,037.3,030.4,31.8,0000.7,0013.76,0022.90,0013.06
2023-07-16 16:15:00,SystemResetWarning,0836.1,5.00,000.00,028.9,027.0,000.0,037.3,030.5,32.0,0000.6,0013.87,0023.12,0013.15
2023-07-16 16:16:00,SystemResetWarning,0836.2,5.00,000.00,028.9,027.3,000.0,037.3,030.6,32.1,0000.6,0013.99,0023.01,0013.21
2023-07-16 16:17:00,SystemResetWarning,0836.2,5.00,000.00,029.0,027.5,000.0,037.3,030.6,31.4,0000.6,0014.06,0022.91,0013.24
2023-07-16 16:18:00,SystemResetWarning,0836.1,5.00,000.00,029.0,027.7,000.0,037.4,030.7,31.7,0000.6,0014.12,0022.37,0013.28
2023-07-16 16:19:00,SystemResetWarning,0836.1,4.99,000.00,029.0,027.1,000.0,037.3,030.7,31.7,0000.6,0014.13,0021.99,0013.34
2023-07-16 16:20:00,SystemResetWarning,0836.1,5.00,000.00,029.0,025.5,000.0,037.2,030.4,31.6,0000.4,0014.20,0021.75,0013.41
2023-07-16 16:21:00,SystemResetWarning,0836.1,5.02,000.00,028.9,024.9,000.0,037.1,030.3,31.6,0000.5,0014.33,0021.71,0013.51
2023-07-16 16:22:00,SystemResetWarning,0836.1,4.99,000.00,028.8,025.2,000.0,037.1,030.2,31.5,0000.6,0014.46,0021.99,0013.58
2023-07-16 16:23:00,SystemResetWarning,0836.1,4.99,000.00,028.8,025.6,000.0,037.1,030.1,31.0,0000.7,0014.59,0022.01,0013.69
2023-07-16 16:24:00,SystemResetWarning,0836.1,5.00,000.00,028.8,026.0,000.0,037.2,030.2,31.9,0000.7,0014.67,0022.09,0013.75
2023-07-16 16:25:00,SystemResetWarning,0836.1,5.01,000.00,028.8,026.4,000.0,037.2,030.3,32.1,0000.9,0014.79,0021.69,0013.88
2023-07-16 16:26:00,SystemResetWarning,0836.1,5.00,000.00,028.8,026.8,000.0,037.2,030.4,32.4,0000.9,0014.86,0022.09,0013.96
2023-07-16 16:27:00,SystemResetWarning,0836.1,4.99,000.00,028.8,027.1,000.0,037.2,030.5,32.4,0000.7,0014.89,0021.92,0014.02
2023-07-16 16:28:00,SystemResetWarning,0836.1,4.99,000.00,028.9,027.3,000.0,037.3,030.5,33.0,0000.5,0014.94,0021.86,0014.10
2023-07-16 16:29:00,SystemResetWarning,0836.2,5.00,000.00,028.9,027.6,000.0,037.3,030.6,33.6,0000.5,0015.05,0022.71,0014.20
2023-07-16 16:30:00,SystemResetWarning,0836.2,5.00,000.00,029.0,027.7,000.0,037.3,030.7,33.3,0000.3,0015.20,0023.50,0014.33
2023-07-16 16:31:00,SystemResetWarning,0836.2,5.00,000.00,029.0,026.7,000.0,037.2,030.5,32.7,0000.3,0015.28,0023.97,0014.40
2023-07-16 16:32:00,SystemResetWarning,0836.2,5.00,000.00,028.9,025.2,000.0,037.1,030.3,33.3,0000.3,0015.36,0024.42,0014.49
2023-07-16 16:33:00,SystemResetWarning,0836.2,5.00,000.00,028.8,025.0,000.0,037.0,030.2,32.9,0000.2,0015.40,0024.45,0014.57
2023-07-16 16:34:00,SystemResetWarning,0836.2,5.01,000.00,028.7,025.3,000.0,037.1,030.1,33.5,0000.2,0015.44,0024.40,0014.60
2023-07-16 16:35:00,SystemResetWarning,0836.2,5.01,000.00,028.7,025.7,000.0,037.1,030.1,32.8,0000.3,0015.51,0024.48,0014.66
2023-07-16 16:36:00,SystemResetWarning,0836.2,5.00,000.00,028.7,026.1,000.0,037.1,030.2,32.3,0000.2,0015.56,0024.52,0014.68
2023-07-16 16:37:00,SystemResetWarning,0836.2,5.00,000.00,028.7,026.5,000.0,037.2,030.3,32.9,0000.3,0015.58,0023.93,0014.73
2023-07-16 16:38:00,SystemResetWarning,0836.2,5.00,000.00,028.8,026.9,000.0,037.2,030.4,32.6,0000.3,0015.65,0023.71,0014.81
2023-07-16 16:39:00,SystemResetWarning,0836.2,5.01,000.00,028.8,027.1,000.0,037.2,030.5,32.4,0000.3,0015.76,0023.69,0014.91
2023-07-16 16:40:00,SystemResetWarning,0836.2,5.01,000.00,028.8,027.4,000.0,037.2,030.5,32.7,0000.3,0015.83,0023.44,0015.01
2023-07-16 16:41:00,SystemResetWarning,0836.2,4.99,000.00,028.9,027.6,000.0,037.3,030.6,32.5,0000.4,0015.92,0023.77,0015.11
2023-07-16 16:42:00,SystemResetWarning,0836.2,4.99,000.00,028.9,027.6,000.0,037.2,030.7,32.8,0000.3,0015.98,0023.82,0015.21
2023-07-16 16:43:00,SystemResetWarning,0836.2,5.00,000.00,028.9,026.2,000.0,037.1,030.5,33.3,0000.7,0016.12,0023.77,0015.33
2023-07-16 16:44:00,SystemResetWarning,0836.2,5.00,000.00,028.9,025.1,000.0,037.0,030.3,33.6,0000.7,0016.27,0025.92,0015.45
2023-07-16 16:45:00,SystemResetWarning,0836.1,5.01,000.00,028.8,025.1,000.0,037.0,030.2,35.0,0000.6,0016.38,0026.49,0015.54
2023-07-16 16:46:00,SystemResetWarning,0836.2,5.00,000.00,028.9,025.4,000.0,037.1,030.2,34.2,0000.6,0016.45,0026.95,0015.58
2023-07-16 16:47:00,SystemResetWarning,0836.2,4.99,000.00,028.9,025.8,000.0,037.1,030.3,33.0,0000.6,0016.49,0027.41,0015.64
2023-07-16 16:48:00,SystemResetWarning,0836.2,5.01,000.00,029.0,026.3,000.0,037.1,030.3,31.9,0000.5,0016.57,0027.90,0015.73
2023-07-16 16:49:00,SystemResetWarning,0836.2,5.00,000.00,029.0,026.6,000.0,037.2,030.4,31.4,0000.5,0016.60,0028.43,0015.78
2023-07-16 16:50:00,SystemResetWarning,0836.2,4.99,000.00,029.1,027.0,000.0,037.2,030.5,31.2,0000.6,0016.61,0028.46,0015.80
2023-07-16 16:51:00,SystemResetWarning,0836.2,5.00,000.00,029.1,027.3,000.0,037.3,030.6,31.2,0000.7,0016.57,0028.47,0015.77
2023-07-16 16:52:00,SystemResetWarning,0836.3,5.01,000.00,029.2,027.5,000.0,037.3,030.6,31.2,0000.6,0016.60,0028.91,0015.77
2023-07-16 16:53:00,SystemResetWarning,0836.2,4.99,000.00,029.2,027.6,000.0,037.3,030.7,31.0,0000.7,0016.68,0029.04,0015.82
2023-07-16 16:54:00,SystemResetWarning,0836.2,4.98,000.00,029.2,026.5,000.0,037.3,030.6,31.1,0000.5,0016.75,0029.50,0015.84
2023-07-16 16:55:00,SystemResetWarning,0836.2,5.01,000.00,029.2,025.2,000.0,037.2,030.4,31.3,0000.1,0016.76,0027.87,0015.86
2023-07-16 16:56:00,SystemResetWarning,0836.2,5.01,000.00,029.1,025.0,000.0,037.1,030.3,31.6,0000.3,0016.76,0027.40,0015.88
2023-07-16 16:57:00,SystemResetWarning,0836.2,5.00,000.00,029.0,025.4,000.0,037.2,030.1,33.2,0000.2,0016.74,0027.93,0015.92
2023-07-16 16:58:00,SystemResetWarning,0836.2,5.00,000.00,029.0,025.8,000.0,037.2,030.2,33.4,0000.1,0016.78,0027.09,0015.94
2023-07-16 16:59:00,SystemResetWarning,0836.2,5.00,000.00,029.0,026.2,000.0,037.3,030.3,32.4,0000.0,0016.82,0027.80,0015.93
